Météo Nord-Pas-de-Calais   La météo au plus près de chez vous

Station météorologique

Observations météo à St Rambert Cg01 (01384)

01384003 296 m Dernier relevé à 14:42
27.9°C
Vent 6.8 km/h

Journée consultée

Mercredi 2 Septembre 2026

Synthèse de la journée

Périodes de référence en UTC

Température maximale

27.9°C

à 14:36

06h 06h

Température minimale

12.9°C

à 04:00

18h 18h

Rafale maximale

16 km/h

à 13:54

00h 00h

Précipitations

0 mm

Cumul quotidien

06h 06h

Graphiques de la journée

Heure locale Réduire

Données détaillées

Relevés météo

Pas de 6 minutes Afficher les relevés infra-horaires
Relevés météo détaillés à St Rambert Cg01 pour le Mercredi 2 Septembre 2026
Heure Température °C Vent moyen (raf.), km/h Précipitations mm
14:42 27.9 °C 7 km/h (14 km/h) 0 mm0 mm
14:36 27.9 °C 6 km/h (14 km/h) 0 mm0 mm
14:30 27.7 °C 5 km/h (12 km/h) 0 mm0 mm
14:24 27.6 °C 6 km/h (14 km/h) 0 mm0 mm
14:18 27.7 °C 6 km/h (15 km/h) 0 mm0 mm
14:12 27.6 °C 6 km/h (13 km/h) 0 mm0 mm
14:06 27.6 °C 5 km/h (13 km/h) 0 mm0 mm
14:00 27.3 °C 6 km/h (16 km/h) 0 mm0 mm
13:54 27 °C 7 km/h (16 km/h) 0 mm0 mm
13:48 27.1 °C 7 km/h (15 km/h) 0 mm0 mm
13:42 26.9 °C 7 km/h (15 km/h) 0 mm0 mm
13:36 27 °C 6 km/h (15 km/h) 0 mm0 mm
13:30 27.1 °C 5 km/h (11 km/h) 0 mm0 mm
13:24 27 °C 6 km/h (14 km/h) 0 mm0 mm
13:18 26.9 °C 6 km/h (14 km/h) 0 mm0 mm
13:12 27 °C 5 km/h (10 km/h) 0 mm0 mm
13:06 26.8 °C 5 km/h (12 km/h) 0 mm0 mm
13:00 26.4 °C 5 km/h (12 km/h) 0 mm0 mm
12:54 26.2 °C 6 km/h (11 km/h) 0 mm0 mm
12:48 26.3 °C 5 km/h (10 km/h) 0 mm0 mm
12:42 26.3 °C 5 km/h (14 km/h) 0 mm0 mm
12:36 26.2 °C 4 km/h (12 km/h) 0 mm0 mm
12:30 25.9 °C 5 km/h (12 km/h) 0 mm0 mm
12:24 25.8 °C 5 km/h (12 km/h) 0 mm0 mm
12:18 25.5 °C 5 km/h (12 km/h) 0 mm0 mm
12:12 25.2 °C 5 km/h (16 km/h) 0 mm0 mm
12:06 25.3 °C 6 km/h (16 km/h) 0 mm0 mm
12:00 25.2 °C 5 km/h (14 km/h) 0 mm0 mm
11:54 25.2 °C 5 km/h (12 km/h) 0 mm0 mm
11:48 25.1 °C 5 km/h (12 km/h) 0 mm0 mm
11:42 25 °C 5 km/h (12 km/h) 0 mm0 mm
11:36 24.9 °C 4 km/h (10 km/h) 0 mm0 mm
11:30 24.1 °C 4 km/h (13 km/h) 0 mm0 mm
11:24 23.8 °C 4 km/h (13 km/h) 0 mm0 mm
11:18 23.1 °C 4 km/h (6 km/h) 0 mm0 mm
11:12 22.6 °C 4 km/h (6 km/h) 0 mm0 mm
11:06 22.3 °C 4 km/h (6 km/h) 0 mm0 mm
11:00 22.5 °C 4 km/h (6 km/h) 0 mm0 mm
10:54 22.1 °C 3 km/h (6 km/h) 0 mm0 mm
10:48 21.5 °C 3 km/h (6 km/h) 0 mm0 mm
10:42 21.4 °C 3 km/h (7 km/h) 0 mm0 mm
10:36 21.3 °C 3 km/h (6 km/h) 0 mm0 mm
10:30 20.8 °C 3 km/h (6 km/h) 0 mm0 mm
10:24 20.7 °C 0 km/h (4 km/h) 0 mm0 mm
10:18 20 °C 2 km/h (5 km/h) 0 mm0 mm
10:12 20 °C 2 km/h (6 km/h) 0 mm0 mm
10:06 20.2 °C 2 km/h (5 km/h) 0 mm0 mm
10:00 19.7 °C 2 km/h (5 km/h) 0 mm0 mm
09:54 19.3 °C 3 km/h (5 km/h) 0 mm0 mm
09:48 18.9 °C 3 km/h (5 km/h) 0 mm0 mm
09:42 18.6 °C 3 km/h (5 km/h) 0 mm0 mm
09:36 18.1 °C 3 km/h (5 km/h) 0 mm0 mm
09:30 18 °C 2 km/h (7 km/h) 0 mm0 mm
09:24 17.6 °C 2 km/h (6 km/h) 0 mm0 mm
09:18 17.8 °C 3 km/h (8 km/h) 0 mm0 mm
09:12 17.5 °C 3 km/h (8 km/h) 0 mm0 mm
09:06 16.8 °C 3 km/h (9 km/h) 0 mm0 mm
09:00 15.9 °C 3 km/h (9 km/h) 0 mm0 mm
08:54 15.6 °C 2 km/h (7 km/h) 0 mm0 mm
08:48 15.2 °C 2 km/h (7 km/h) 0 mm0 mm
08:42 14.9 °C 2 km/h (5 km/h) 0 mm0 mm
08:36 14.8 °C 0 km/h (6 km/h) 0 mm0 mm
08:30 14.6 °C 2 km/h (7 km/h) 0 mm0 mm
08:24 14.4 °C 3 km/h (7 km/h) 0 mm0 mm
08:18 14.2 °C 2 km/h (6 km/h) 0 mm0 mm
08:12 14.2 °C 0 km/h (5 km/h) 0 mm0 mm
08:06 14.1 °C 0 km/h (5 km/h) 0 mm0 mm
08:00 14.1 °C 0 km/h (6 km/h) 0 mm0 mm
07:54 14 °C 2 km/h (6 km/h) 0 mm0 mm
07:48 13.9 °C 2 km/h (6 km/h) 0 mm0 mm
07:42 13.9 °C 2 km/h (7 km/h) 0 mm0 mm
07:36 13.8 °C 2 km/h (8 km/h) 0 mm0 mm
07:30 13.7 °C 0 km/h (5 km/h) 0 mm0 mm
07:24 13.6 °C 2 km/h (5 km/h) 0 mm0 mm
07:18 13.7 °C 2 km/h (5 km/h) 0 mm0 mm
07:12 13.7 °C 0 km/h (5 km/h) 0 mm0 mm
07:06 13.7 °C 0 km/h (5 km/h) 0 mm0 mm
07:00 13.6 °C 0 km/h (6 km/h) 0 mm0 mm
06:54 13.6 °C 2 km/h (6 km/h) 0 mm0 mm
06:48 13.7 °C 2 km/h (6 km/h) 0 mm0 mm
06:42 13.7 °C 0 km/h (4 km/h) 0 mm0 mm
06:36 13.7 °C 0 km/h (6 km/h) 0 mm0 mm
06:30 13.9 °C 0 km/h (6 km/h) 0 mm0 mm
06:24 13.9 °C 0 km/h (7 km/h) 0 mm0 mm
06:18 13.9 °C 2 km/h (7 km/h) 0 mm0 mm
06:12 13.9 °C 0 km/h (7 km/h) 0 mm0 mm
06:06 13.9 °C 0 km/h (5 km/h) 0 mm0 mm
06:00 13.8 °C 0 km/h (5 km/h) 0 mm0 mm
05:54 13.8 °C 0 km/h (5 km/h) 0 mm0 mm
05:48 13.8 °C 2 km/h (9 km/h) 0 mm0 mm
05:42 13.8 °C 3 km/h (10 km/h) 0 mm0 mm
05:36 13.7 °C 3 km/h (9 km/h) 0 mm0 mm
05:30 13.7 °C 2 km/h (6 km/h) 0 mm0 mm
05:24 13.7 °C 2 km/h (8 km/h) 0 mm0 mm
05:18 13.7 °C 3 km/h (8 km/h) 0 mm0 mm
05:12 13.6 °C 2 km/h (7 km/h) 0 mm0 mm
05:06 13.4 °C 0 km/h (5 km/h) 0 mm0 mm
05:00 13.3 °C 0 km/h (6 km/h) 0 mm0 mm
04:54 13.3 °C 0 km/h (5 km/h) 0 mm0 mm
04:48 13.3 °C 0 km/h (5 km/h) 0 mm0 mm
04:42 13.2 °C 2 km/h (6 km/h) 0 mm0 mm
04:36 13.1 °C 2 km/h (6 km/h) 0 mm0 mm
04:30 13.1 °C 0 km/h (5 km/h) 0 mm0 mm
04:24 13 °C 0 km/h (6 km/h) 0 mm0 mm
04:18 12.9 °C 0 km/h (6 km/h) 0 mm0 mm
04:12 12.9 °C 2 km/h (7 km/h) 0 mm0 mm
04:06 12.9 °C 2 km/h (7 km/h) 0 mm0 mm
04:00 12.9 °C 0 km/h (6 km/h) 0 mm0 mm
03:54 13 °C 2 km/h (8 km/h) 0 mm0 mm
03:48 13 °C 0 km/h (6 km/h) 0 mm0 mm
03:42 13.1 °C 2 km/h (7 km/h) 0 mm0 mm
03:36 13.1 °C 2 km/h (7 km/h) 0 mm0 mm
03:30 13.1 °C 0 km/h (9 km/h) 0 mm0 mm
03:24 13.2 °C 0 km/h (9 km/h) 0 mm0 mm
03:18 13.2 °C 0 km/h (6 km/h) 0 mm0 mm
03:12 13.3 °C 2 km/h (6 km/h) 0 mm0 mm
03:06 13.3 °C 2 km/h (10 km/h) 0 mm0 mm
03:00 13.3 °C 2 km/h (10 km/h) 0 mm0 mm
02:54 13.4 °C 2 km/h (6 km/h) 0 mm0 mm
02:48 13.5 °C 2 km/h (6 km/h) 0 mm0 mm
02:42 13.6 °C 2 km/h (7 km/h) 0 mm0 mm
02:36 13.5 °C 2 km/h (8 km/h) 0 mm0 mm
02:30 13.6 °C 2 km/h (8 km/h) 0 mm0 mm
02:24 13.6 °C 2 km/h (7 km/h) 0 mm0 mm
02:18 13.7 °C 2 km/h (7 km/h) 0 mm0 mm
02:12 13.8 °C 2 km/h (8 km/h) 0 mm0 mm
02:06 13.9 °C 0 km/h (5 km/h) 0 mm0 mm
02:00 14 °C 0 km/h (6 km/h) 0 mm0 mm
01:54 14.1 °C 0 km/h (6 km/h) 0 mm0 mm
01:48 14.1 °C 2 km/h (8 km/h) 0 mm0 mm
01:42 14.2 °C 2 km/h (8 km/h) 0 mm0 mm
01:36 14.3 °C 2 km/h (7 km/h) 0 mm0 mm
01:30 14.3 °C 2 km/h (6 km/h) 0 mm0 mm
01:24 14.4 °C 2 km/h (7 km/h) 0 mm0 mm
01:18 14.5 °C 2 km/h (7 km/h) 0 mm0 mm
01:12 14.5 °C 2 km/h (8 km/h) 0 mm0 mm
01:06 14.6 °C 2 km/h (8 km/h) 0 mm0 mm
01:00 14.7 °C 2 km/h (6 km/h) 0 mm0 mm
00:54 14.8 °C 3 km/h (7 km/h) 0 mm0 mm
00:48 14.8 °C 3 km/h (9 km/h) 0 mm0 mm
00:42 14.9 °C 3 km/h (9 km/h) 0 mm0 mm
00:36 14.9 °C 3 km/h (10 km/h) 0 mm0 mm
00:30 14.9 °C 3 km/h (10 km/h) 0 mm0 mm
00:24 14.9 °C 2 km/h (6 km/h) 0 mm0 mm
00:18 14.9 °C 2 km/h (6 km/h) 0 mm0 mm
00:12 15 °C 2 km/h (6 km/h) 0 mm0 mm
00:06 15 °C 2 km/h (5 km/h) 0 mm0 mm
00:00 15 °C 2 km/h (6 km/h) 0 mm0 mm

Données via Météo-France

Relevés météo à St Rambert Cg01

Cette page rassemble les observations de la station de St Rambert Cg01 : température, humidité, vent, précipitations et pression atmosphérique. Les graphiques facilitent le suivi de la journée, tandis que le tableau donne accès aux mesures horaires et infra-horaires disponibles.

Pour replacer ces mesures dans leur contexte, consultez la climatologie de St Rambert Cg01. Retrouvez aussi la carte des observations météo en temps réel.